User: anonymous   Login
Location: Phoenix
(33.4480°N, 112.0730°W)
Time: 09:01:06
(UTC-07:00)
Language:

Hubble Space Telescope - Orbit

View from above orbital plane
View from above orbital plane
View from above satellite
View from above satellite

Ground track
Ground track

The orbit data is extracted from the following two-line orbital elements,

1 20580U 90037B   16152.04577053  .00000818  00000-0  40065-4 0  9996
2 20580  28.4709  11.9163 0002804  27.7834 126.3478 15.08373761232529
Epoch (UTC): 31 May 2016 01:05:54
Eccentricity: 0.0002804
inclination: 28.4709°
perigee height: 539 km
apogee height: 543 km
right ascension of ascending node: 11.9163°
argument of perigee: 27.7834°
revolutions per day: 15.08373761
mean anomaly at epoch: 126.3478°
orbit number at epoch: 23252

The dashed part of the orbit path shows where the satellite is in the earth's shadow,  

DLR